This is the latest recevied weather packets stored in our database for station/object KB1RMA-13. If no packets are shown the sender has not sent any weather packets the latest 10 day(s).
| Time | Temp. | Humidity | Pressure | Rain* | Wind** | Luminosity | Snow |
|---|---|---|---|---|---|---|---|
| 1777112630 | 0° C | 95% | 1019.5 hPa | 0 mm | - | 39 W/m² | - |
| 1777112325 | 0° C | 95% | 1019.3 hPa | 0 mm | - | 33 W/m² | - |
| 1777112023 | -0.56° C | 95% | 1019 hPa | 0 mm | - | 27 W/m² | - |
| 1777111719 | -0.56° C | 95% | 1019 hPa | 0 mm | - | 21 W/m² | - |
| 1777111415 | -0.56° C | 96% | 1019 hPa | 0 mm | - | 16 W/m² | - |
| 1777111111 | -0.56° C | 95% | 1019.1 hPa | 0 mm | - | 11 W/m² | - |
| 1777110808 | -0.56° C | 96% | 1018.9 hPa | 0 mm | - | 7 W/m² | - |
| 1777110504 | -0.56° C | 96% | 1018.9 hPa | 0 mm | - | 4 W/m² | - |
| 1777110199 | -0.56° C | 95% | 1018.9 hPa | 0 mm | - | 2 W/m² | - |
| 1777109895 | -0.56° C | 96% | 1018.7 hPa | 0 mm | - | 1 W/m² | - |
| 1777109591 | -0.56° C | 95% | 1018.9 hPa | 0 mm | - | 0 W/m² | - |
| 1777109288 | -0.56° C | 95% | 1018.7 hPa | 0 mm | - | 0 W/m² | - |
| 1777108983 | -0.56° C | 95% | 1018.6 hPa | 0 mm | - | 0 W/m² | - |
| 1777108678 | -0.56° C | 95% | 1018.6 hPa | 0 mm | - | 0 W/m² | - |
| 1777108375 | -0.56° C | 95% | 1018.5 hPa | 0 mm | - | 0 W/m² | - |
| 1777108070 | -0.56° C | 95% | 1018.5 hPa | 0 mm | - | 0 W/m² | - |
| 1777107766 | -0.56° C | 94% | 1018.7 hPa | 0 mm | - | 0 W/m² | - |
| 1777107460 | 0° C | 94% | 1018.6 hPa | 0 mm | - | 0 W/m² | - |
| 1777107158 | 0° C | 94% | 1018.6 hPa | 0 mm | - | 0 W/m² | - |
| 1777106857 | 0° C | 94% | 1018.6 hPa | 0 mm | - | 0 W/m² | - |
| 1777106555 | 0° C | 93% | 1018.5 hPa | 0 mm | - | 0 W/m² | - |
| 1777106251 | 0° C | 93% | 1018.3 hPa | 0 mm | - | 0 W/m² | - |
| 1777105947 | 0° C | 93% | 1018.6 hPa | 0 mm | - | 0 W/m² | - |
| 1777105644 | 0.56° C | 93% | 1018.3 hPa | 0 mm | - | 0 W/m² | - |
| 1777105339 | 0.56° C | 93% | 1018.1 hPa | 0 mm | - | 0 W/m² | - |
* Rain latest hour (hover to see other rain measurements)
** Current wind speed in m/s (hover to see current wind gust speed)